This is the latest recevied weather packets stored in our database for station/object KG4LKY-5. If no packets are shown the sender has not sent any weather packets the latest 10 day(s).
| Time | Temp. | Humidity | Pressure | Rain* | Wind** | Luminosity | Snow |
|---|---|---|---|---|---|---|---|
| 1777796011 | -0.56° C | 100% | 1020.7 hPa | 0 mm | - | - | - |
| 1777795710 | 0.56° C | 100% | 1020.7 hPa | 0 mm | - | - | - |
| 1777795410 | 0.56° C | 100% | 1020.5 hPa | 0 mm | - | - | - |
| 1777794810 | 0.56° C | 100% | 1020.5 hPa | 0 mm | - | - | - |
| 1777794509 | 0° C | 100% | 1020.4 hPa | 0 mm | - | - | - |
| 1777794209 | 0.56° C | 100% | 1020.2 hPa | 0 mm | - | - | - |
| 1777793608 | 1.11° C | 100% | 1020.1 hPa | 0 mm | - | - | - |
| 1777793308 | 0.56° C | 100% | 1020 hPa | 0 mm | - | - | - |
| 1777793007 | 1.11° C | 100% | 1020 hPa | 0 mm | - | - | - |
| 1777792707 | 0.56° C | 100% | 1019.9 hPa | 0 mm | - | - | - |
| 1777792107 | 0.56° C | 100% | 1019.9 hPa | 0 mm | - | - | - |
| 1777791504 | 1.11° C | 100% | 1019.8 hPa | 0 mm | - | - | - |
| 1777790904 | 1.67° C | 100% | 1019.7 hPa | 0 mm | - | - | - |
| 1777790604 | 1.11° C | 100% | 1019.7 hPa | 0 mm | - | - | - |
| 1777790303 | 1.11° C | 100% | 1019.6 hPa | 0 mm | - | - | - |
| 1777790003 | 1.11° C | 100% | 1019.6 hPa | 0 mm | - | - | - |
| 1777789402 | 1.67° C | 100% | 1019.6 hPa | 0 mm | - | - | - |
| 1777788802 | 2.78° C | 100% | 1019.6 hPa | 0 mm | - | - | - |
| 1777788502 | 2.22° C | 100% | 1019.7 hPa | 0 mm | - | - | - |
| 1777788201 | 2.22° C | 100% | 1019.6 hPa | 0 mm | - | - | - |
| 1777787599 | 2.22° C | 100% | 1019.5 hPa | 0 mm | - | - | - |
| 1777786999 | 2.22° C | 100% | 1019.6 hPa | 0 mm | - | - | - |
| 1777786098 | 2.22° C | 100% | 1019.6 hPa | 0 mm | - | - | - |
| 1777785197 | 2.78° C | 100% | 1019.6 hPa | 0 mm | - | - | - |
| 1777784897 | 2.78° C | 100% | 1019.5 hPa | 0 mm | - | - | - |
* Rain since midnight (hover to see other rain measurements)
** Current wind speed in m/s (hover to see current wind gust speed)